GAOFEN-1 03

Last updated on Wed Sep 17 2025 00:02:31 GMT+0000 (Coordinated Universal Time)

1 43260U 18031B 25259.61717101 .00000596 00000+0 93268-4 0 9996 2 43260 98.0021 317.2042 0003770 189.0604 171.0539 14.76308482402321
UTC large
Height (km)
Speed (km/s)
/
Latitude / Longitude
Inclination (degrees)
Orbital Period (minutes)
Azimuth
Elevation
Range (km)
Doppler Factor

Next 0 passes for location: London (51.5072 / 0.1276)

Sorry there are no passes over London.